Regional Weather Roundup
Issued by NWS Albany, NY

Home | Current Version | Previous Version | Graphics & Text | Print | Product List | Glossary Off
Versions: 1 2 3 4 5 6 7 8 9 10 11 12 13 14 15 16 17 18 19 20 21 22 23 24 25 26 27 28 29 30 31 32 33 34 35 36 37 38 39 40 41 42 43 44 45 46 47 48 49 50

591
ASUS41 KALY 312310
RWRALY

NEW YORK STATE HOURLY WEATHER ROUNDUP
NATIONAL WEATHER SERVICE ALBANY NY
700 PM EDT TUE MAY 31 2016

NOTE: "FAIR" INDICATES FEW OR NO CLOUDS BELOW 12,000 FEET WITH NO
SIGNIFICANT WEATHER AND/OR NO OBSTRUCTIONS TO VISIBILITY.

NYZ032-033-038>043-046>054-057>066-NYZ062>081-082-084-010000-
EAST


CITY           SKY/WX    TMP DP  RH WIND       PRES   REMARKS
ALBANY         PTSUNNY   79  42  26 NW16      29.93R
GLENS FALLS    SUNNY     81  39  22 W10G18    29.90R
POUGHKEEPSIE   MOSUNNY   84  55  36 NW3       29.90R
NEWBURGH       MOSUNNY   82  57  42 NW12      29.93R
MONTGOMERY     SUNNY     82  56  40 W3        29.92R
WHITE PLAINS   MOSUNNY   78  60  53 S8        29.93R
ISLIP          MOSUNNY   74  64  71 SW8       29.93R
NEW YORK CITY  MOSUNNY   79  68  69 SW12      29.92R
CENTRAL PARK   SUNNY     78  60  53 S3        29.95R
$$

NYZ005>009-017-018-044>046-055-056-010000-
CENTRAL


CITY           SKY/WX    TMP DP  RH WIND       PRES   REMARKS
FULTON         SUNNY     76  48  37 NW10      29.99R
SYRACUSE       CLOUDY    75  47  36 NW16      29.98R
ROME           SUNNY     75  47  36 NW15      29.98R
ELMIRA         MOSUNNY   79  53  40 N6        29.97R
BINGHAMTON     PTSUNNY   74  51  44 N8        30.01R
MONTICELLO     MOSUNNY   75  54  46 NW6       30.00R
$$

NYZ026>034-041>043-087-010000-
NORTH


CITY           SKY/WX    TMP DP  RH WIND       PRES   REMARKS
WATERTOWN      PTSUNNY   69  53  56 W8        29.96R
FORT DRUM      NOT AVBL
MASSENA        MOSUNNY   70  48  45 NW15G22   29.99R
SARANAC LAKE   CLOUDY    69  47  45 VRB6      29.97R
PLATTSBURGH    PTSUNNY   73  50  44 N17       29.93R
$$

NYZ001>004-010>016-019>021-085-010000-
WEST


CITY           SKY/WX    TMP DP  RH WIND       PRES   REMARKS
BUFFALO        PTSUNNY   76  46  34 N15G21    30.01R
DUNKIRK        SUNNY     76  45  33 W7        30.02R
JAMESTOWN      CLOUDY    73  45  35 NW8       30.05F
WELLSVILLE     MOSUNNY   73  48  41 NW10      30.07R
ROCHESTER      CLOUDY    75  47  36 N15       30.01R
PENN YAN       CLOUDY    77  47  34 NW9       30.00R
$$

             KEY
       WCI = WIND CHILL INDEX
       VSB = VISIBILITY
       HX  = HEAT INDEX
$$




USA.gov is the U.S. government's official web portal to all federal, state and local government web resources and services.